Regional Weather Roundup
Issued by NWS Green Bay, WI

Home | Current Version | Previous Version | Graphics & Text | Print | Product List | Glossary Off
Versions: 1 2 3 4 5 6 7 8 9 10 11 12 13 14 15 16 17 18 19 20 21 22 23 24 25 26 27 28 29 30 31 32 33 34 35 36 37 38 39 40 41 42 43 44 45 46 47 48 49 50

000
ASUS43 KGRB 072100
RWRGRB

NORTH-CENTRAL AND NORTHEAST WISCONSIN REGIONAL WEATHER ROUNDUP
NATIONAL WEATHER SERVICE GREEN BAY WI
400 PM CDT TUE JUL 07 2015

WIZ005-009-010>012-018-019-072200-
NORTH CENTRAL WISCONSIN

CITY           SKY/WX    TMP DP  RH WIND       PRES   REMARKS
IRONWOOD       SUNNY     64  41  42 N5        30.10S
MANITOWISH WTR NOT AVBL
ARBOR VITAE    NOT AVBL
EAGLE RIVER    NOT AVBL
LAND O LAKES   NOT AVBL
RHINELANDER    MOSUNNY   67  44  43 N8        30.11S
PHILLIPS       NOT AVBL
ANTIGO         NOT AVBL
TOMAHAWK       NOT AVBL
MERRILL        NOT AVBL
$$

WIZ013-073-072200-
NORTHEAST WISCONSIN

CITY           SKY/WX    TMP DP  RH WIND       PRES   REMARKS
IRON MOUNTAIN  CLOUDY    67  47  48 NW13      30.07R
MARINETTE      MOSUNNY   66  46  48 N14       30.05S
$$

WIZ017-030-035>037-045-072200-
CENTRAL WISCONSIN

CITY           SKY/WX    TMP DP  RH WIND       PRES   REMARKS
MEDFORD        NOT AVBL
WAUSAU         MOSUNNY   70  45  40 N8        30.08R
MOSINEE        PTSUNNY   66  46  48 NE13      30.10S
MARSHFIELD     MOSUNNY   70  46  42 N8        30.09F
WISC RAPIDS    PTSUNNY   70  46  42 N10G24    30.10S
STEVENS POINT  NOT AVBL
WAUPACA        NOT AVBL
SHAWANO        NOT AVBL
CLINTONVILLE   NOT AVBL
$$

WIZ038-039-048-051-072200-
FOX VALLEY

CITY           SKY/WX    TMP DP  RH WIND       PRES   REMARKS
NWS GREEN BAY  PTSUNNY   71  49  45 N13       30.07R
APPLETON       PTSUNNY   66  45  45 N9        30.07S
OSHKOSH        PTSUNNY   68  47  46 N10       30.06S
FOND DU LAC    CLOUDY    69  49  48 N10       30.07R
$$

WIZ022-050-052-072200-
EAST CENTRAL WISCONSIN

CITY           SKY/WX    TMP DP  RH WIND       PRES   REMARKS
STURGEON BAY   MOSUNNY   64  48  55 N12       30.09R
MANITOWOC      NOT AVBL
SHEBOYGAN      CLOUDY    63  51  65 E9        30.06R
$$

LMZ563-521-522-541>543-072200-
LAKESHORE

STATION/POSITION TIME  TEMP    WIND        PRES    VSBY  WAVE
                       AIR SEA DIR/SP/G                  HT/PER
                 (UTC) (F)     (DEG/KT/KT) (MB)    (MI)  (FT/S)
SHEBOYGAN LKSHOR 2000   57      50/  9/ 11 1018.2R
KEWAUNEE LKSHORE 2012   60      70/  5/  9 1017.2R
ALGOMA MARINA    2011           10/ 12/ 17   N/A
NORTHPORT PIER   2000   61     350/ 14/ 17 1017.3S
N MID LAKE BUOY  1950   56 53  310/ 12/ 12 1016.8R         2/ 4
S GREEN BAY BUOY 2000   65 68  350/ 12/ 16 1018.9R
SISTER BAY LKSHO 2014   66     350/ 18/ 23   N/A
CHAMBERS ISLAND  2000   65     350/ 12/ 15 1017.6S
MENOMINEE LKSHOR 2000   64     340/ 16/ 18 1018.0F
$$



USA.gov is the U.S. government's official web portal to all federal, state and local government web resources and services.